Mobridge, SD

6:49 PM CDT on March 25, 2017 (GMT -0500)
Mobridge Municipal

Weather History for KMBG - February, 2014

Change the Weather History Date:

Saturday, February 22, 2014

  Actual Average Record
Temperature  
Mean Temperature 16 °F 23 °F  
Max Temperature 23 °F 33 °F 65 °F (2002)
Min Temperature 8 °F 12 °F -20 °F (1957)
Degree Days  
Heating Degree Days 49 42  
Month to date heating degree days 1165 996  
Since 1 July heating degree days 6184 5729  
Cooling Degree Days 0 0  
Month to date cooling degree days 0 0  
Year to date cooling degree days 0 0  
Moisture  
Dew Point 2 °F    
Average Humidity 60    
Maximum Humidity 80    
Minimum Humidity 39    
Precipitation  
Precipitation 0.00 in 0.01 in 0.54 in (1942)
Month to date precipitation 0.33 0.30  
Year to date precipitation 0.51 0.59  
Snow  
Snow 0.00 in - - ()
Month to date snowfall 7.2  
Since 1 July snowfall 28.7  
Snow Depth 0.00 in    
Sea Level Pressure  
Sea Level Pressure 30.12 in    
Wind  
Wind Speed 12 mph (NNW)    
Max Wind Speed 18 mph    
Max Gust Speed 24 mph    
Visibility 10 miles    
Events      
T = Trace of Precipitation, MM = Missing Value Source: NWS Daily Summary

Daily Weather History Graph

Daily Weather History Graph

Search for Another Location

Airport or City:

Trip Planner

Search our weather history database for the weather conditions in past years. The results will help you decide how hot, cold, wet, or windy it might be!

Date:

Astronomy

Feb. 22, 2014 Rise Set
Actual Time 7:32 AM CST 6:18 PM CST
Civil Twilight 7:02 AM CST 6:48 PM CST
Nautical Twilight 6:27 AM CST 7:23 PM CST
Astronomical Twilight 5:53 AM CST 7:57 PM CST
Moon 1:36 AM CST (2/22) 11:23 AM CST (2/22)
Length of Visible Light 11h 46m
Length of Day
10h 46m
Waning Gibbous, 50% of the Moon is Illuminated
Feb 22
Waning Gibbous
Mar 1
New
Mar 8
First Quarter
Mar 16
Full
Mar 23
Last Quarter

Hourly Weather History & Observations

Time (CST) Temp. Windchill Dew Point Humidity Pressure Visibility Wind Dir Wind Speed Gust Speed Precip Events Conditions
12:52 AM 12.9 °F -1.6 °F 1.9 °F 62% 29.96 in 10.0 mi NW 12.7 mph - N/A   Clear
1:52 AM 12.0 °F -2.7 °F 1.0 °F 61% 29.97 in 10.0 mi NNW 12.7 mph - N/A   Clear
2:52 AM 10.9 °F -3.4 °F 1.9 °F 67% 29.99 in 10.0 mi NW 11.5 mph - N/A   Clear
3:52 AM 10.9 °F -4.1 °F 1.9 °F 67% 30.00 in 10.0 mi NW 12.7 mph - N/A   Clear
4:52 AM 10.0 °F -4.5 °F 1.0 °F 67% 30.01 in 10.0 mi NW 11.5 mph - N/A   Clear
5:52 AM 9.0 °F -5.9 °F -0.0 °F 67% 30.04 in 10.0 mi NW 11.5 mph - N/A   Clear
6:52 AM 9.0 °F -7.9 °F -0.0 °F 67% 30.06 in 10.0 mi NNW 15.0 mph - N/A   Clear
7:52 AM 8.1 °F -5.3 °F -0.0 °F 70% 30.08 in 10.0 mi NW 9.2 mph - N/A   Clear
8:52 AM 10.9 °F -5.4 °F -0.0 °F 61% 30.09 in 10.0 mi NW 15.0 mph - N/A   Clear
9:52 AM 14.0 °F -0.2 °F 1.0 °F 56% 30.12 in 10.0 mi NW 12.7 mph - N/A   Clear
10:52 AM 16.0 °F 0.6 °F 1.0 °F 52% 30.13 in 10.0 mi NW 16.1 mph - N/A   Clear
11:52 AM 18.0 °F 4.2 °F 1.9 °F 50% 30.14 in 10.0 mi NW 13.8 mph - N/A   Clear
12:52 PM 19.0 °F 5.0 °F 1.0 °F 46% 30.14 in 10.0 mi NW 15.0 mph - N/A   Clear
1:52 PM 19.9 °F 7.3 °F 1.9 °F 46% 30.14 in 10.0 mi NW 12.7 mph - N/A   Clear
2:52 PM 21.0 °F 8.1 °F 1.0 °F 42% 30.14 in 10.0 mi NW 13.8 mph - N/A   Mostly Cloudy
3:52 PM 23.0 °F 10.1 °F 1.9 °F 40% 30.14 in 10.0 mi NNW 15.0 mph - N/A   Clear
4:52 PM 23.0 °F 9.6 °F 1.0 °F 39% 30.14 in 10.0 mi NNW 16.1 mph - N/A   Clear
5:52 PM 21.0 °F 9.9 °F 3.0 °F 46% 30.17 in 10.0 mi NNW 10.4 mph - N/A   Clear
6:52 PM 15.1 °F 3.3 °F 3.0 °F 59% 30.19 in 10.0 mi NNE 9.2 mph - N/A   Clear
7:52 PM 12.0 °F 5.9 °F 3.9 °F 70% 30.23 in 10.0 mi North 3.5 mph - N/A   Clear
8:52 PM 9.0 °F 2.4 °F 3.0 °F 77% 30.25 in 10.0 mi North 3.5 mph - N/A   Clear
9:52 PM 9.0 °F -2.2 °F 3.0 °F 77% 30.26 in 10.0 mi North 6.9 mph - N/A   Clear
10:52 PM 12.9 °F 0.7 °F 6.1 °F 74% 30.27 in 10.0 mi North 9.2 mph - N/A   Overcast
11:52 PM 14.0 °F 2.9 °F 5.0 °F 67% 30.28 in 10.0 mi NNW 8.1 mph - N/A   Overcast